Orbital Elements at Epoch 2459200.5 (2020-Dec-17.0) TDB
Reference: JPL 16 (heliocentric ecliptic J2000)
Element | Value | Uncertainty (1-sigma) | Units |
e | .1302480818372231 | 8.251e-08 | |
a | 2.316623122843855 | 8.3863e-09 | au |
q | 2.014887404753686 | 1.9301e-07 | au |
i | 6.730969448613504 | 7.0192e-06 | deg |
node | 169.9852705850617 | 3.3799e-05 | deg |
peri | 208.7791535016468 | 3.7988e-05 | deg |
M | 114.9014815600402 | 1.5052e-05 | deg |
tp | 2458789.440551757964 (2019-Nov-01.94055176) | 5.3561e-05 | TDB |
period | 1287.898113740225 3.53 | 6.9934e-06 1.915e-08 | d yr |
n | .2795252172196392 | 1.5178e-09 | deg/d |
Q | 2.618358840934025 | 9.4786e-09 | au |
|
| | Orbit Determination Parameters
Additional Information
|